Veersedijk — PBCX — position and weather

sailwx.info

Track history (hours):
 
Tides and Currents Weather Stations Pressure Air Temp Water Temp Dewpoint Dewpoint Depression Visibility Wind Speed Wind Dir Waves Ship Positions

Veersedijk

Last reported at 2014-Jul-24 15:30 UTC. Time now 2014-Jul-25 03:42 UTC.
Position N 35°53' W 008°42'.

Length 132 m; draft 6.3 m.

Type: Ship (hazmat cat A). MMSI: 244268000.

Date/timePositionNaut miles runAvg speedWind from/ knotsBaromVisibWave heightAir tempDewpointWater temp
2014-Jul-24 15:30N 35°53' W 008°42'4511.0
2014-Jul-24 11:23N 36°32' W 009°12'2411.7
2014-Jul-24 09:18N 36°48' W 009°34'1013.7
2014-Jul-24 08:33N 36°59' W 009°35'1412.4
2014-Jul-24 07:28N 37°12' W 009°34'1212.6
2014-Jul-24 06:33N 37°24' W 009°33'1312.7
2014-Jul-24 05:32N 37°37' W 009°31'1312.8
2014-Jul-24 04:33N 37°49' W 009°29'1312.6
2014-Jul-24 03:33N 38°02' W 009°28'1212.2
2014-Jul-24 02:33N 38°14' W 009°27'1212.3
2014-Jul-24 01:33N 38°26' W 009°25'1511.2
2014-Jul-24 00:11N 38°40' W 009°18'6 8.6
2014-Jul-23 23:32N 38°41' W 009°11'1 0.3
2014-Jul-23 20:27N 38°42' W 009°10'0 0.0
2014-Jul-23 17:27N 38°42' W 009°10'0 0.0
2014-Jul-23 15:30N 38°42' W 009°10'0 0.0
2014-Jul-23 14:32N 38°42' W 009°10'5 5.0
2014-Jul-23 13:33N 38°41' W 009°16'1110.1
2014-Jul-23 12:29N 38°37' W 009°29'  
2014-Jul-20 06:33N 38°10' W 009°40'1312.8
2014-Jul-20 05:33N 37°57' W 009°36'1312.7
2014-Jul-20 04:33N 37°45' W 009°33'1313.1
2014-Jul-20 03:33N 37°32' W 009°30'4113.3
2014-Jul-20 00:26N 36°52' W 009°16'2412.9
2014-Jul-19 22:33N 36°40' W 008°50'1212.6
2014-Jul-19 21:33N 36°36' W 008°36'1312.3
2014-Jul-19 20:31N 36°31' W 008°21'2612.0
2014-Jul-19 18:23N 36°23' W 007°51'  
2014-Jul-15 14:20N 33°37' W 007°36'  
Track history (hours):
 
Tides and Currents Weather Stations Pressure Air Temp Water Temp Dewpoint Dewpoint Depression Visibility Wind Speed Wind Dir Waves Ship Positions

Veersedijk

Last reported at 2014-Jul-24 15:30 UTC. Time now 2014-Jul-25 03:42 UTC.
Position N 35°53' W 008°42'.

Length 132 m; draft 6.3 m.

Type: Ship (hazmat cat A). MMSI: 244268000.

Date/timePositionNaut miles runAvg speedWind from/ knotsBaromVisibWave heightAir tempDewpointWater temp
2014-Jul-24 15:30N 35°53' W 008°42'4511.0
2014-Jul-24 11:23N 36°32' W 009°12'2411.7
2014-Jul-24 09:18N 36°48' W 009°34'1013.7
2014-Jul-24 08:33N 36°59' W 009°35'1412.4
2014-Jul-24 07:28N 37°12' W 009°34'1212.6
2014-Jul-24 06:33N 37°24' W 009°33'1312.7
2014-Jul-24 05:32N 37°37' W 009°31'1312.8
2014-Jul-24 04:33N 37°49' W 009°29'1312.6
2014-Jul-24 03:33N 38°02' W 009°28'1212.2
2014-Jul-24 02:33N 38°14' W 009°27'1212.3
2014-Jul-24 01:33N 38°26' W 009°25'1511.2
2014-Jul-24 00:11N 38°40' W 009°18'6 8.6
2014-Jul-23 23:32N 38°41' W 009°11'1 0.3
2014-Jul-23 20:27N 38°42' W 009°10'0 0.0
2014-Jul-23 17:27N 38°42' W 009°10'0 0.0
2014-Jul-23 15:30N 38°42' W 009°10'0 0.0
2014-Jul-23 14:32N 38°42' W 009°10'5 5.0
2014-Jul-23 13:33N 38°41' W 009°16'1110.1
2014-Jul-23 12:29N 38°37' W 009°29'  
2014-Jul-20 06:33N 38°10' W 009°40'1312.8
2014-Jul-20 05:33N 37°57' W 009°36'1312.7
2014-Jul-20 04:33N 37°45' W 009°33'1313.1
2014-Jul-20 03:33N 37°32' W 009°30'4113.3
2014-Jul-20 00:26N 36°52' W 009°16'2412.9
2014-Jul-19 22:33N 36°40' W 008°50'1212.6
2014-Jul-19 21:33N 36°36' W 008°36'1312.3
2014-Jul-19 20:31N 36°31' W 008°21'2612.0
2014-Jul-19 18:23N 36°23' W 007°51'  
2014-Jul-15 14:20N 33°37' W 007°36'  

Dump ship's entire track history